Date_Time,Julian_Date,Latitude,Longitude,Instrument_Depth,U,V,Speed,Direction
(yyyy-mm-dd hh:mn:ss UTC),(JD),(+ deg. North),(+ deg. East),(m),(cm/s),(cm/s),(cm/s),(deg True)
1981-02-17 19:30:00 UTC,2444653.312500,29.4519,-93.4333,0107,-3.15,3.89,5.0000,321.0000
1981-02-17 20:00:00 UTC,2444653.333333,29.4519,-93.4333,0107,-2.88,2.78,4.0000,314.0000
1981-02-17 20:30:00 UTC,2444653.354167,29.4519,-93.4333,0107,-2.33,1.89,3.0000,309.0000
1981-02-17 21:00:00 UTC,2444653.375000,29.4519,-93.4333,0107,-0.99,-0.12,1.0000,263.0000
1981-02-17 21:30:00 UTC,2444653.395833,29.4519,-93.4333,0107,-0.24,-1.99,2.0000,187.0000
1981-02-17 22:00:00 UTC,2444653.416667,29.4519,-93.4333,0107,0.28,-1.98,2.0000,172.0000
1981-02-17 22:30:00 UTC,2444653.437500,29.4519,-93.4333,0107,0.45,-1.95,2.0000,167.0000
1981-02-17 23:00:00 UTC,2444653.458333,29.4519,-93.4333,0107,0.28,-1.98,2.0000,172.0000
1981-02-17 23:30:00 UTC,2444653.479167,29.4519,-93.4333,0107,-0.07,-2.00,2.0000,182.0000
1981-02-18 00:00:00 UTC,2444653.500000,29.4519,-93.4333,0107,-0.52,-1.93,2.0000,195.0000
1981-02-18 00:30:00 UTC,2444653.520833,29.4519,-93.4333,0107,-0.88,-0.47,1.0000,242.0000
1981-02-18 01:00:00 UTC,2444653.541667,29.4519,-93.4333,0107,-0.62,1.90,2.0000,342.0000
1981-02-18 01:30:00 UTC,2444653.562500,29.4519,-93.4333,0107,-0.07,4.00,4.0000,359.0000
1981-02-18 02:00:00 UTC,2444653.583333,29.4519,-93.4333,0107,0.78,4.94,5.0000,9.0000
1981-02-18 02:30:00 UTC,2444653.604167,29.4519,-93.4333,0107,0.70,4.95,5.0000,8.0000
1981-02-18 03:00:00 UTC,2444653.625000,29.4519,-93.4333,0107,0.09,5.00,5.0000,1.0000
1981-02-18 03:30:00 UTC,2444653.645833,29.4519,-93.4333,0107,0.17,5.00,5.0000,2.0000
1981-02-18 04:00:00 UTC,2444653.666667,29.4519,-93.4333,0107,0.84,5.94,6.0000,8.0000
1981-02-18 04:30:00 UTC,2444653.687500,29.4519,-93.4333,0107,0.52,4.97,5.0000,6.0000
1981-02-18 05:00:00 UTC,2444653.708333,29.4519,-93.4333,0107,0.35,4.99,5.0000,4.0000
1981-02-18 05:30:00 UTC,2444653.729167,29.4519,-93.4333,0107,1.04,4.89,5.0000,12.0000
1981-02-18 06:00:00 UTC,2444653.750000,29.4519,-93.4333,0107,0.83,2.88,3.0000,16.0000
1981-02-18 06:30:00 UTC,2444653.770833,29.4519,-93.4333,0107,0.07,2.00,2.0000,2.0000
1981-02-18 07:00:00 UTC,2444653.791667,29.4519,-93.4333,0107,-0.12,0.99,1.0000,353.0000
1981-02-18 07:30:00 UTC,2444653.812500,29.4519,-93.4333,0107,0.03,1.00,1.0000,2.0000
1981-02-18 08:00:00 UTC,2444653.833333,29.4519,-93.4333,0107,0.00,0.00,0.0000,11.0000
1981-02-18 08:30:00 UTC,2444653.854167,29.4519,-93.4333,0107,0.00,0.00,0.0000,3.0000
1981-02-18 09:00:00 UTC,2444653.875000,29.4519,-93.4333,0107,-0.09,1.00,1.0000,355.0000
1981-02-18 09:30:00 UTC,2444653.895833,29.4519,-93.4333,0107,-0.26,0.97,1.0000,345.0000
1981-02-18 10:00:00 UTC,2444653.916667,29.4519,-93.4333,0107,-0.36,0.93,1.0000,339.0000
1981-02-18 10:30:00 UTC,2444653.937500,29.4519,-93.4333,0107,-0.26,0.97,1.0000,345.0000
1981-02-18 11:00:00 UTC,2444653.958333,29.4519,-93.4333,0107,-0.42,1.96,2.0000,348.0000
1981-02-18 11:30:00 UTC,2444653.979167,29.4519,-93.4333,0107,-0.57,2.94,3.0000,349.0000
1981-02-18 12:00:00 UTC,2444654.000000,29.4519,-93.4333,0107,-0.35,1.97,2.0000,350.0000
1981-02-18 12:30:00 UTC,2444654.020833,29.4519,-93.4333,0107,-0.47,2.96,3.0000,351.0000
1981-02-18 13:00:00 UTC,2444654.041667,29.4519,-93.4333,0107,-0.63,3.95,4.0000,351.0000
1981-02-18 13:30:00 UTC,2444654.062500,29.4519,-93.4333,0107,-0.63,3.95,4.0000,351.0000
1981-02-18 14:00:00 UTC,2444654.083333,29.4519,-93.4333,0107,-0.09,5.00,5.0000,359.0000
1981-02-18 14:30:00 UTC,2444654.104167,29.4519,-93.4333,0107,1.55,5.80,6.0000,15.0000
1981-02-18 15:00:00 UTC,2444654.125000,29.4519,-93.4333,0107,2.63,5.39,6.0000,26.0000
1981-02-18 15:30:00 UTC,2444654.145833,29.4519,-93.4333,0107,2.50,4.33,5.0000,30.0000
1981-02-18 16:00:00 UTC,2444654.166667,29.4519,-93.4333,0107,1.94,3.50,4.0000,29.0000
1981-02-18 16:30:00 UTC,2444654.187500,29.4519,-93.4333,0107,1.94,3.50,4.0000,29.0000
1981-02-18 17:00:00 UTC,2444654.208333,29.4519,-93.4333,0107,1.45,2.62,3.0000,29.0000
1981-02-18 17:30:00 UTC,2444654.229167,29.4519,-93.4333,0107,1.45,2.62,3.0000,29.0000
1981-02-18 18:00:00 UTC,2444654.250000,29.4519,-93.4333,0107,1.41,2.65,3.0000,28.0000
1981-02-18 18:30:00 UTC,2444654.270833,29.4519,-93.4333,0107,1.36,2.67,3.0000,27.0000
1981-02-18 19:00:00 UTC,2444654.291667,29.4519,-93.4333,0107,0.91,1.78,2.0000,27.0000
1981-02-18 19:30:00 UTC,2444654.312500,29.4519,-93.4333,0107,0.91,1.78,2.0000,27.0000
1981-02-18 20:00:00 UTC,2444654.333333,29.4519,-93.4333,0107,0.45,0.89,1.0000,27.0000
1981-02-18 20:30:00 UTC,2444654.354167,29.4519,-93.4333,0107,0.47,0.88,1.0000,28.0000
1981-02-18 21:00:00 UTC,2444654.375000,29.4519,-93.4333,0107,0.47,0.88,1.0000,28.0000
1981-02-18 21:30:00 UTC,2444654.395833,29.4519,-93.4333,0107,0.47,0.88,1.0000,28.0000
1981-02-18 22:00:00 UTC,2444654.416667,29.4519,-93.4333,0107,0.00,0.00,0.0000,31.0000
1981-02-18 22:30:00 UTC,2444654.437500,29.4519,-93.4333,0107,0.63,0.78,1.0000,39.0000
1981-02-18 23:00:00 UTC,2444654.458333,29.4519,-93.4333,0107,0.71,0.71,1.0000,45.0000
1981-02-18 23:30:00 UTC,2444654.479167,29.4519,-93.4333,0107,0.00,0.00,0.0000,49.0000
1981-02-19 00:00:00 UTC,2444654.500000,29.4519,-93.4333,0107,0.00,0.00,0.0000,55.0000
1981-02-19 00:30:00 UTC,2444654.520833,29.4519,-93.4333,0107,0.00,0.00,0.0000,51.0000
1981-02-19 01:00:00 UTC,2444654.541667,29.4519,-93.4333,0107,0.75,0.66,1.0000,49.0000
1981-02-19 01:30:00 UTC,2444654.562500,29.4519,-93.4333,0107,2.23,2.01,3.0000,48.0000
1981-02-19 02:00:00 UTC,2444654.583333,29.4519,-93.4333,0107,2.97,2.68,4.0000,48.0000
1981-02-19 02:30:00 UTC,2444654.604167,29.4519,-93.4333,0107,2.97,2.68,4.0000,48.0000
1981-02-19 03:00:00 UTC,2444654.625000,29.4519,-93.4333,0107,2.26,1.97,3.0000,49.0000
1981-02-19 03:30:00 UTC,2444654.645833,29.4519,-93.4333,0107,2.97,2.68,4.0000,48.0000
1981-02-19 04:00:00 UTC,2444654.666667,29.4519,-93.4333,0107,2.19,2.05,3.0000,47.0000
1981-02-19 04:30:00 UTC,2444654.687500,29.4519,-93.4333,0107,2.16,2.08,3.0000,46.0000
1981-02-19 05:00:00 UTC,2444654.708333,29.4519,-93.4333,0107,2.12,2.12,3.0000,45.0000
1981-02-19 05:30:00 UTC,2444654.729167,29.4519,-93.4333,0107,1.41,1.41,2.0000,45.0000
1981-02-19 06:00:00 UTC,2444654.750000,29.4519,-93.4333,0107,0.68,0.73,1.0000,43.0000
1981-02-19 06:30:00 UTC,2444654.770833,29.4519,-93.4333,0107,0.68,0.73,1.0000,43.0000
1981-02-19 07:00:00 UTC,2444654.791667,29.4519,-93.4333,0107,0.68,0.73,1.0000,43.0000
1981-02-19 07:30:00 UTC,2444654.812500,29.4519,-93.4333,0107,0.69,0.72,1.0000,44.0000
1981-02-19 08:00:00 UTC,2444654.833333,29.4519,-93.4333,0107,0.71,0.71,1.0000,45.0000
1981-02-19 08:30:00 UTC,2444654.854167,29.4519,-93.4333,0107,0.00,0.00,0.0000,47.0000
1981-02-19 09:00:00 UTC,2444654.875000,29.4519,-93.4333,0107,0.00,0.00,0.0000,51.0000
1981-02-19 09:30:00 UTC,2444654.895833,29.4519,-93.4333,0107,0.00,0.00,0.0000,46.0000
1981-02-19 10:00:00 UTC,2444654.916667,29.4519,-93.4333,0107,1.41,1.41,2.0000,45.0000
1981-02-19 10:30:00 UTC,2444654.937500,29.4519,-93.4333,0107,2.12,2.12,3.0000,45.0000
1981-02-19 11:00:00 UTC,2444654.958333,29.4519,-93.4333,0107,2.12,2.12,3.0000,45.0000
1981-02-19 11:30:00 UTC,2444654.979167,29.4519,-93.4333,0107,2.12,2.12,3.0000,45.0000
1981-02-19 12:00:00 UTC,2444655.000000,29.4519,-93.4333,0107,2.88,2.78,4.0000,46.0000
1981-02-19 12:30:00 UTC,2444655.020833,29.4519,-93.4333,0107,2.93,2.73,4.0000,47.0000
1981-02-19 13:00:00 UTC,2444655.041667,29.4519,-93.4333,0107,3.72,3.35,5.0000,48.0000
1981-02-19 13:30:00 UTC,2444655.062500,29.4519,-93.4333,0107,2.97,2.68,4.0000,48.0000
1981-02-19 14:00:00 UTC,2444655.083333,29.4519,-93.4333,0107,2.97,2.68,4.0000,48.0000
1981-02-19 14:30:00 UTC,2444655.104167,29.4519,-93.4333,0107,3.72,3.35,5.0000,48.0000
1981-02-19 15:00:00 UTC,2444655.125000,29.4519,-93.4333,0107,3.77,3.28,5.0000,49.0000
1981-02-19 15:30:00 UTC,2444655.145833,29.4519,-93.4333,0107,3.77,3.28,5.0000,49.0000
1981-02-19 16:00:00 UTC,2444655.166667,29.4519,-93.4333,0107,3.83,3.21,5.0000,50.0000
1981-02-19 16:30:00 UTC,2444655.187500,29.4519,-93.4333,0107,3.83,3.21,5.0000,50.0000
1981-02-19 17:00:00 UTC,2444655.208333,29.4519,-93.4333,0107,3.02,2.62,4.0000,49.0000
1981-02-19 17:30:00 UTC,2444655.229167,29.4519,-93.4333,0107,3.02,2.62,4.0000,49.0000
1981-02-19 18:00:00 UTC,2444655.250000,29.4519,-93.4333,0107,2.26,1.97,3.0000,49.0000
1981-02-19 18:30:00 UTC,2444655.270833,29.4519,-93.4333,0107,2.23,2.01,3.0000,48.0000
1981-02-19 19:00:00 UTC,2444655.291667,29.4519,-93.4333,0107,1.46,1.36,2.0000,47.0000
1981-02-19 19:30:00 UTC,2444655.312500,29.4519,-93.4333,0107,1.44,1.39,2.0000,46.0000
1981-02-19 20:00:00 UTC,2444655.333333,29.4519,-93.4333,0107,0.71,0.71,1.0000,45.0000
1981-02-19 20:30:00 UTC,2444655.354167,29.4519,-93.4333,0107,0.72,0.69,1.0000,46.0000
1981-02-19 21:00:00 UTC,2444655.375000,29.4519,-93.4333,0107,0.00,0.00,0.0000,48.0000
1981-02-19 21:30:00 UTC,2444655.395833,29.4519,-93.4333,0107,0.00,0.00,0.0000,53.0000
1981-02-19 22:00:00 UTC,2444655.416667,29.4519,-93.4333,0107,0.00,0.00,0.0000,51.0000
1981-02-19 22:30:00 UTC,2444655.437500,29.4519,-93.4333,0107,0.73,0.68,1.0000,47.0000
1981-02-19 23:00:00 UTC,2444655.458333,29.4519,-93.4333,0107,1.49,1.34,2.0000,48.0000
1981-02-19 23:30:00 UTC,2444655.479167,29.4519,-93.4333,0107,2.23,2.01,3.0000,48.0000
1981-02-20 00:00:00 UTC,2444655.500000,29.4519,-93.4333,0107,2.26,1.97,3.0000,49.0000
1981-02-20 00:30:00 UTC,2444655.520833,29.4519,-93.4333,0107,1.51,1.31,2.0000,49.0000
1981-02-20 01:00:00 UTC,2444655.541667,29.4519,-93.4333,0107,1.51,1.31,2.0000,49.0000
1981-02-20 01:30:00 UTC,2444655.562500,29.4519,-93.4333,0107,1.53,1.29,2.0000,50.0000
1981-02-20 02:00:00 UTC,2444655.583333,29.4519,-93.4333,0107,1.53,1.29,2.0000,50.0000
1981-02-20 02:30:00 UTC,2444655.604167,29.4519,-93.4333,0107,2.30,1.93,3.0000,50.0000
1981-02-20 03:00:00 UTC,2444655.625000,29.4519,-93.4333,0107,2.26,1.97,3.0000,49.0000
1981-02-20 03:30:00 UTC,2444655.645833,29.4519,-93.4333,0107,3.02,2.62,4.0000,49.0000
1981-02-20 04:00:00 UTC,2444655.666667,29.4519,-93.4333,0107,3.02,2.62,4.0000,49.0000
1981-02-20 04:30:00 UTC,2444655.687500,29.4519,-93.4333,0107,3.02,2.62,4.0000,49.0000
1981-02-20 05:00:00 UTC,2444655.708333,29.4519,-93.4333,0107,2.26,1.97,3.0000,49.0000
1981-02-20 05:30:00 UTC,2444655.729167,29.4519,-93.4333,0107,2.30,1.93,3.0000,50.0000
1981-02-20 06:00:00 UTC,2444655.750000,29.4519,-93.4333,0107,2.33,1.89,3.0000,51.0000
1981-02-20 06:30:00 UTC,2444655.770833,29.4519,-93.4333,0107,1.55,1.26,2.0000,51.0000
1981-02-20 07:00:00 UTC,2444655.791667,29.4519,-93.4333,0107,0.78,0.63,1.0000,51.0000
1981-02-20 07:30:00 UTC,2444655.812500,29.4519,-93.4333,0107,0.77,0.64,1.0000,50.0000
1981-02-20 08:00:00 UTC,2444655.833333,29.4519,-93.4333,0107,0.77,0.64,1.0000,50.0000
1981-02-20 08:30:00 UTC,2444655.854167,29.4519,-93.4333,0107,0.77,0.64,1.0000,50.0000
1981-02-20 09:00:00 UTC,2444655.875000,29.4519,-93.4333,0107,0.77,0.64,1.0000,50.0000
1981-02-20 09:30:00 UTC,2444655.895833,29.4519,-93.4333,0107,0.77,0.64,1.0000,50.0000
1981-02-20 10:00:00 UTC,2444655.916667,29.4519,-93.4333,0107,0.78,0.63,1.0000,51.0000
1981-02-20 10:30:00 UTC,2444655.937500,29.4519,-93.4333,0107,0.79,0.62,1.0000,52.0000
1981-02-20 11:00:00 UTC,2444655.958333,29.4519,-93.4333,0107,1.58,1.23,2.0000,52.0000
1981-02-20 11:30:00 UTC,2444655.979167,29.4519,-93.4333,0107,1.60,1.20,2.0000,53.0000
1981-02-20 12:00:00 UTC,2444656.000000,29.4519,-93.4333,0107,1.62,1.18,2.0000,54.0000
1981-02-20 12:30:00 UTC,2444656.020833,29.4519,-93.4333,0107,0.81,0.59,1.0000,54.0000
1981-02-20 13:00:00 UTC,2444656.041667,29.4519,-93.4333,0107,0.80,0.60,1.0000,53.0000
1981-02-20 13:30:00 UTC,2444656.062500,29.4519,-93.4333,0107,0.80,0.60,1.0000,53.0000
1981-02-20 14:00:00 UTC,2444656.083333,29.4519,-93.4333,0107,1.62,1.18,2.0000,54.0000
1981-02-20 14:30:00 UTC,2444656.104167,29.4519,-93.4333,0107,3.28,2.29,4.0000,55.0000
1981-02-20 15:00:00 UTC,2444656.125000,29.4519,-93.4333,0107,4.91,3.44,6.0000,55.0000
1981-02-20 15:30:00 UTC,2444656.145833,29.4519,-93.4333,0107,4.97,3.36,6.0000,56.0000
1981-02-20 16:00:00 UTC,2444656.166667,29.4519,-93.4333,0107,4.97,3.36,6.0000,56.0000
1981-02-20 16:30:00 UTC,2444656.187500,29.4519,-93.4333,0107,4.91,3.44,6.0000,55.0000
1981-02-20 17:00:00 UTC,2444656.208333,29.4519,-93.4333,0107,4.91,3.44,6.0000,55.0000
1981-02-20 17:30:00 UTC,2444656.229167,29.4519,-93.4333,0107,4.91,3.44,6.0000,55.0000
1981-02-20 18:00:00 UTC,2444656.250000,29.4519,-93.4333,0107,4.10,2.87,5.0000,55.0000
1981-02-20 18:30:00 UTC,2444656.270833,29.4519,-93.4333,0107,4.10,2.87,5.0000,55.0000
1981-02-20 19:00:00 UTC,2444656.291667,29.4519,-93.4333,0107,4.10,2.87,5.0000,55.0000
1981-02-20 19:30:00 UTC,2444656.312500,29.4519,-93.4333,0107,3.28,2.29,4.0000,55.0000
1981-02-20 20:00:00 UTC,2444656.333333,29.4519,-93.4333,0107,3.28,2.29,4.0000,55.0000
1981-02-20 20:30:00 UTC,2444656.354167,29.4519,-93.4333,0107,3.28,2.29,4.0000,55.0000
1981-02-20 21:00:00 UTC,2444656.375000,29.4519,-93.4333,0107,2.46,1.72,3.0000,55.0000
1981-02-20 21:30:00 UTC,2444656.395833,29.4519,-93.4333,0107,1.66,1.12,2.0000,56.0000
1981-02-20 22:00:00 UTC,2444656.416667,29.4519,-93.4333,0107,1.66,1.12,2.0000,56.0000
1981-02-20 22:30:00 UTC,2444656.437500,29.4519,-93.4333,0107,2.49,1.68,3.0000,56.0000
1981-02-20 23:00:00 UTC,2444656.458333,29.4519,-93.4333,0107,2.49,1.68,3.0000,56.0000
1981-02-20 23:30:00 UTC,2444656.479167,29.4519,-93.4333,0107,2.52,1.63,3.0000,57.0000
1981-02-21 00:00:00 UTC,2444656.500000,29.4519,-93.4333,0107,3.35,2.18,4.0000,57.0000
1981-02-21 00:30:00 UTC,2444656.520833,29.4519,-93.4333,0107,3.35,2.18,4.0000,57.0000
1981-02-21 01:00:00 UTC,2444656.541667,29.4519,-93.4333,0107,3.39,2.12,4.0000,58.0000
1981-02-21 01:30:00 UTC,2444656.562500,29.4519,-93.4333,0107,3.39,2.12,4.0000,58.0000
1981-02-21 02:00:00 UTC,2444656.583333,29.4519,-93.4333,0107,4.24,2.65,5.0000,58.0000
1981-02-21 02:30:00 UTC,2444656.604167,29.4519,-93.4333,0107,4.24,2.65,5.0000,58.0000
1981-02-21 03:00:00 UTC,2444656.625000,29.4519,-93.4333,0107,5.09,3.18,6.0000,58.0000
1981-02-21 03:30:00 UTC,2444656.645833,29.4519,-93.4333,0107,5.09,3.18,6.0000,58.0000
1981-02-21 04:00:00 UTC,2444656.666667,29.4519,-93.4333,0107,6.00,3.61,7.0000,59.0000
1981-02-21 04:30:00 UTC,2444656.687500,29.4519,-93.4333,0107,6.00,3.61,7.0000,59.0000
1981-02-21 05:00:00 UTC,2444656.708333,29.4519,-93.4333,0107,5.09,3.18,6.0000,58.0000
1981-02-21 05:30:00 UTC,2444656.729167,29.4519,-93.4333,0107,5.09,3.18,6.0000,58.0000
1981-02-21 06:00:00 UTC,2444656.750000,29.4519,-93.4333,0107,5.14,3.09,6.0000,59.0000
1981-02-21 06:30:00 UTC,2444656.770833,29.4519,-93.4333,0107,5.14,3.09,6.0000,59.0000
1981-02-21 07:00:00 UTC,2444656.791667,29.4519,-93.4333,0107,5.14,3.09,6.0000,59.0000
1981-02-21 07:30:00 UTC,2444656.812500,29.4519,-93.4333,0107,4.24,2.65,5.0000,58.0000
1981-02-21 08:00:00 UTC,2444656.833333,29.4519,-93.4333,0107,4.24,2.65,5.0000,58.0000
1981-02-21 08:30:00 UTC,2444656.854167,29.4519,-93.4333,0107,3.39,2.12,4.0000,58.0000
1981-02-21 09:00:00 UTC,2444656.875000,29.4519,-93.4333,0107,2.54,1.59,3.0000,58.0000
1981-02-21 09:30:00 UTC,2444656.895833,29.4519,-93.4333,0107,1.71,1.03,2.0000,59.0000
1981-02-21 10:00:00 UTC,2444656.916667,29.4519,-93.4333,0107,1.71,1.03,2.0000,59.0000
1981-02-21 10:30:00 UTC,2444656.937500,29.4519,-93.4333,0107,1.70,1.06,2.0000,58.0000
1981-02-21 11:00:00 UTC,2444656.958333,29.4519,-93.4333,0107,0.85,0.53,1.0000,58.0000
1981-02-21 11:30:00 UTC,2444656.979167,29.4519,-93.4333,0107,1.71,1.03,2.0000,59.0000
1981-02-21 12:00:00 UTC,2444657.000000,29.4519,-93.4333,0107,1.73,1.00,2.0000,60.0000
1981-02-21 12:30:00 UTC,2444657.020833,29.4519,-93.4333,0107,1.73,1.00,2.0000,60.0000
1981-02-21 13:00:00 UTC,2444657.041667,29.4519,-93.4333,0107,1.73,1.00,2.0000,60.0000
1981-02-21 13:30:00 UTC,2444657.062500,29.4519,-93.4333,0107,1.73,1.00,2.0000,60.0000
1981-02-21 14:00:00 UTC,2444657.083333,29.4519,-93.4333,0107,1.73,1.00,2.0000,60.0000
1981-02-21 14:30:00 UTC,2444657.104167,29.4519,-93.4333,0107,0.86,0.52,1.0000,59.0000
1981-02-21 15:00:00 UTC,2444657.125000,29.4519,-93.4333,0107,0.84,0.54,1.0000,57.0000
1981-02-21 15:30:00 UTC,2444657.145833,29.4519,-93.4333,0107,0.84,0.54,1.0000,57.0000
1981-02-21 16:00:00 UTC,2444657.166667,29.4519,-93.4333,0107,0.84,0.54,1.0000,57.0000
1981-02-21 16:30:00 UTC,2444657.187500,29.4519,-93.4333,0107,0.84,0.54,1.0000,57.0000
1981-02-21 17:00:00 UTC,2444657.208333,29.4519,-93.4333,0107,0.84,0.54,1.0000,57.0000
1981-02-21 17:30:00 UTC,2444657.229167,29.4519,-93.4333,0107,0.84,0.54,1.0000,57.0000
1981-02-21 18:00:00 UTC,2444657.250000,29.4519,-93.4333,0107,0.84,0.54,1.0000,57.0000
1981-02-21 18:30:00 UTC,2444657.270833,29.4519,-93.4333,0107,0.84,0.54,1.0000,57.0000
1981-02-21 19:00:00 UTC,2444657.291667,29.4519,-93.4333,0107,0.84,0.54,1.0000,57.0000
1981-02-21 19:30:00 UTC,2444657.312500,29.4519,-93.4333,0107,0.84,0.54,1.0000,57.0000
1981-02-21 20:00:00 UTC,2444657.333333,29.4519,-93.4333,0107,0.85,0.53,1.0000,58.0000
1981-02-21 20:30:00 UTC,2444657.354167,29.4519,-93.4333,0107,0.85,0.53,1.0000,58.0000
1981-02-21 21:00:00 UTC,2444657.375000,29.4519,-93.4333,0107,0.84,0.54,1.0000,57.0000
1981-02-21 21:30:00 UTC,2444657.395833,29.4519,-93.4333,0107,0.84,0.54,1.0000,57.0000
1981-02-21 22:00:00 UTC,2444657.416667,29.4519,-93.4333,0107,0.83,0.56,1.0000,56.0000
1981-02-21 22:30:00 UTC,2444657.437500,29.4519,-93.4333,0107,0.82,0.57,1.0000,55.0000
1981-02-21 23:00:00 UTC,2444657.458333,29.4519,-93.4333,0107,0.82,0.57,1.0000,55.0000
1981-02-21 23:30:00 UTC,2444657.479167,29.4519,-93.4333,0107,0.80,0.60,1.0000,53.0000
1981-02-22 00:00:00 UTC,2444657.500000,29.4519,-93.4333,0107,0.00,0.00,0.0000,53.0000
1981-02-22 00:30:00 UTC,2444657.520833,29.4519,-93.4333,0107,0.00,0.00,0.0000,58.0000
1981-02-22 01:00:00 UTC,2444657.541667,29.4519,-93.4333,0107,0.00,0.00,0.0000,71.0000
1981-02-22 01:30:00 UTC,2444657.562500,29.4519,-93.4333,0107,0.00,0.00,0.0000,68.0000
1981-02-22 02:00:00 UTC,2444657.583333,29.4519,-93.4333,0107,0.00,0.00,0.0000,61.0000
1981-02-22 02:30:00 UTC,2444657.604167,29.4519,-93.4333,0107,0.00,0.00,0.0000,53.0000
1981-02-22 03:00:00 UTC,2444657.625000,29.4519,-93.4333,0107,0.00,0.00,0.0000,52.0000
1981-02-22 03:30:00 UTC,2444657.645833,29.4519,-93.4333,0107,0.00,0.00,0.0000,52.0000
1981-02-22 04:00:00 UTC,2444657.666667,29.4519,-93.4333,0107,0.00,0.00,0.0000,47.0000
1981-02-22 04:30:00 UTC,2444657.687500,29.4519,-93.4333,0107,0.00,0.00,0.0000,44.0000
1981-02-22 05:00:00 UTC,2444657.708333,29.4519,-93.4333,0107,0.00,0.00,0.0000,40.0000
1981-02-22 05:30:00 UTC,2444657.729167,29.4519,-93.4333,0107,0.63,0.78,1.0000,39.0000
1981-02-22 06:00:00 UTC,2444657.750000,29.4519,-93.4333,0107,0.63,0.78,1.0000,39.0000
1981-02-22 06:30:00 UTC,2444657.770833,29.4519,-93.4333,0107,0.62,0.79,1.0000,38.0000
1981-02-22 07:00:00 UTC,2444657.791667,29.4519,-93.4333,0107,0.00,0.00,0.0000,37.0000
1981-02-22 07:30:00 UTC,2444657.812500,29.4519,-93.4333,0107,-0.00,0.00,0.0000,359.0000
1981-02-22 08:00:00 UTC,2444657.833333,29.4519,-93.4333,0107,-0.34,0.94,1.0000,340.0000
1981-02-22 08:30:00 UTC,2444657.854167,29.4519,-93.4333,0107,-0.45,0.89,1.0000,333.0000
1981-02-22 09:00:00 UTC,2444657.875000,29.4519,-93.4333,0107,-0.63,0.78,1.0000,321.0000
1981-02-22 09:30:00 UTC,2444657.895833,29.4519,-93.4333,0107,-1.58,1.23,2.0000,308.0000
1981-02-22 10:00:00 UTC,2444657.916667,29.4519,-93.4333,0107,-1.78,0.91,2.0000,297.0000
1981-02-22 10:30:00 UTC,2444657.937500,29.4519,-93.4333,0107,-1.92,0.55,2.0000,286.0000
1981-02-22 11:00:00 UTC,2444657.958333,29.4519,-93.4333,0107,-0.97,0.22,1.0000,283.0000
1981-02-22 11:30:00 UTC,2444657.979167,29.4519,-93.4333,0107,-0.98,0.21,1.0000,282.0000
1981-02-22 12:00:00 UTC,2444658.000000,29.4519,-93.4333,0107,-0.99,0.10,1.0000,276.0000
1981-02-22 12:30:00 UTC,2444658.020833,29.4519,-93.4333,0107,-2.00,-0.00,2.0000,270.0000
1981-02-22 13:00:00 UTC,2444658.041667,29.4519,-93.4333,0107,-1.00,-0.07,1.0000,266.0000
1981-02-22 13:30:00 UTC,2444658.062500,29.4519,-93.4333,0107,-0.99,-0.12,1.0000,263.0000
1981-02-22 14:00:00 UTC,2444658.083333,29.4519,-93.4333,0107,-0.99,-0.12,1.0000,263.0000
1981-02-22 14:30:00 UTC,2444658.104167,29.4519,-93.4333,0107,-1.00,-0.09,1.0000,265.0000
1981-02-22 15:00:00 UTC,2444658.125000,29.4519,-93.4333,0107,-1.00,-0.07,1.0000,266.0000
1981-02-22 15:30:00 UTC,2444658.145833,29.4519,-93.4333,0107,-2.00,-0.07,2.0000,268.0000
1981-02-22 16:00:00 UTC,2444658.166667,29.4519,-93.4333,0107,-2.99,0.26,3.0000,275.0000
1981-02-22 16:30:00 UTC,2444658.187500,29.4519,-93.4333,0107,-2.82,1.03,3.0000,290.0000
1981-02-22 17:00:00 UTC,2444658.208333,29.4519,-93.4333,0107,-2.30,1.93,3.0000,310.0000
1981-02-22 17:30:00 UTC,2444658.229167,29.4519,-93.4333,0107,-2.73,2.93,4.0000,317.0000
1981-02-22 18:00:00 UTC,2444658.250000,29.4519,-93.4333,0107,-3.61,4.79,6.0000,323.0000
1981-02-22 18:30:00 UTC,2444658.270833,29.4519,-93.4333,0107,-3.63,7.13,8.0000,333.0000
1981-02-22 19:00:00 UTC,2444658.291667,29.4519,-93.4333,0107,-2.47,7.61,8.0000,342.0000
1981-02-22 19:30:00 UTC,2444658.312500,29.4519,-93.4333,0107,-1.46,6.85,7.0000,348.0000
1981-02-22 20:00:00 UTC,2444658.333333,29.4519,-93.4333,0107,-1.22,6.89,7.0000,350.0000
1981-02-22 20:30:00 UTC,2444658.354167,29.4519,-93.4333,0107,-0.84,5.94,6.0000,352.0000
1981-02-22 21:00:00 UTC,2444658.375000,29.4519,-93.4333,0107,-0.63,5.97,6.0000,354.0000
1981-02-22 21:30:00 UTC,2444658.395833,29.4519,-93.4333,0107,-0.52,5.98,6.0000,355.0000
1981-02-22 22:00:00 UTC,2444658.416667,29.4519,-93.4333,0107,-0.35,3.98,4.0000,355.0000
1981-02-22 22:30:00 UTC,2444658.437500,29.4519,-93.4333,0107,-0.21,2.99,3.0000,356.0000
1981-02-22 23:00:00 UTC,2444658.458333,29.4519,-93.4333,0107,-0.14,2.00,2.0000,356.0000
1981-02-22 23:30:00 UTC,2444658.479167,29.4519,-93.4333,0107,-0.07,1.00,1.0000,356.0000
1981-02-23 00:00:00 UTC,2444658.500000,29.4519,-93.4333,0107,-0.07,1.00,1.0000,356.0000
1981-02-23 00:30:00 UTC,2444658.520833,29.4519,-93.4333,0107,-0.00,0.00,0.0000,356.0000
1981-02-23 01:00:00 UTC,2444658.541667,29.4519,-93.4333,0107,-0.00,0.00,0.0000,356.0000
1981-02-23 01:30:00 UTC,2444658.562500,29.4519,-93.4333,0107,-0.00,0.00,0.0000,356.0000
1981-02-23 02:00:00 UTC,2444658.583333,29.4519,-93.4333,0107,-0.07,1.00,1.0000,356.0000
1981-02-23 02:30:00 UTC,2444658.604167,29.4519,-93.4333,0107,-0.14,2.00,2.0000,356.0000
1981-02-23 03:00:00 UTC,2444658.625000,29.4519,-93.4333,0107,-0.21,2.99,3.0000,356.0000
1981-02-23 03:30:00 UTC,2444658.645833,29.4519,-93.4333,0107,-0.21,2.99,3.0000,356.0000
1981-02-23 04:00:00 UTC,2444658.666667,29.4519,-93.4333,0107,-0.21,2.99,3.0000,356.0000
1981-02-23 04:30:00 UTC,2444658.687500,29.4519,-93.4333,0107,-0.28,3.99,4.0000,356.0000
1981-02-23 05:00:00 UTC,2444658.708333,29.4519,-93.4333,0107,-0.35,4.99,5.0000,356.0000
1981-02-23 05:30:00 UTC,2444658.729167,29.4519,-93.4333,0107,-0.35,4.99,5.0000,356.0000
1981-02-23 06:00:00 UTC,2444658.750000,29.4519,-93.4333,0107,-0.42,5.99,6.0000,356.0000
1981-02-23 06:30:00 UTC,2444658.770833,29.4519,-93.4333,0107,-0.37,6.99,7.0000,357.0000
1981-02-23 07:00:00 UTC,2444658.791667,29.4519,-93.4333,0107,-0.42,7.99,8.0000,357.0000
1981-02-23 07:30:00 UTC,2444658.812500,29.4519,-93.4333,0107,-0.42,7.99,8.0000,357.0000
1981-02-23 08:00:00 UTC,2444658.833333,29.4519,-93.4333,0107,-0.37,6.99,7.0000,357.0000
1981-02-23 08:30:00 UTC,2444658.854167,29.4519,-93.4333,0107,-0.42,5.99,6.0000,356.0000
1981-02-23 09:00:00 UTC,2444658.875000,29.4519,-93.4333,0107,-0.28,3.99,4.0000,356.0000
1981-02-23 09:30:00 UTC,2444658.895833,29.4519,-93.4333,0107,-0.21,2.99,3.0000,356.0000
1981-02-23 10:00:00 UTC,2444658.916667,29.4519,-93.4333,0107,-0.14,2.00,2.0000,356.0000
1981-02-23 10:30:00 UTC,2444658.937500,29.4519,-93.4333,0107,-0.14,2.00,2.0000,356.0000
1981-02-23 11:00:00 UTC,2444658.958333,29.4519,-93.4333,0107,-0.14,2.00,2.0000,356.0000
1981-02-23 11:30:00 UTC,2444658.979167,29.4519,-93.4333,0107,-0.14,2.00,2.0000,356.0000
1981-02-23 12:00:00 UTC,2444659.000000,29.4519,-93.4333,0107,-0.14,2.00,2.0000,356.0000
1981-02-23 12:30:00 UTC,2444659.020833,29.4519,-93.4333,0107,-0.07,1.00,1.0000,356.0000